User: anonymous   Login
Location: Peebles
(55.6412°N, 3.1714°W)
Time: 09:12:49
(UTC+00:00)
Language:

COSMOS 2251 DEB - Orbit

View from above orbital plane
View from above orbital plane
View from above satellite
View from above satellite

Ground track
Ground track

The orbit data is extracted from the following two-line orbital elements,

1 47077U 93036BYH 23046.87261870  .00054074  00000-0  74384-2 0  9998
2 47077  74.1185 103.9288 0075433 300.0472 174.9042 14.76028319558648
Epoch (UTC): 15 February 2023 20:56:34
Eccentricity: 0.0075433
inclination: 74.1185°
perigee height: 589 km
apogee height: 695 km
right ascension of ascending node: 103.9288°
argument of perigee: 300.0472°
revolutions per day: 14.76028319
mean anomaly at epoch: 174.9042°
orbit number at epoch: 55864

The dashed part of the orbit path shows where the satellite is in the earth's shadow,  

DLR